Reflectivity
-20 -20 -20 -20 -20 -20 -20 -20 -20 -20 -20 -20 -20 -20 -20 -20 -20 -20 -20 -20 -20 -20 -20 -20 -20 -20 -20 -20 -20 -20 -20 -20 -20 -20 -20 -20 -20 -20 -20 -20 -20 -20 -20 -20
-20 -20 -20 -20 -20 -20 -20 -20 -20 -20 -20 -20 -20 -20 -20 -20 -20 -20 -20 -20 -20 -20 -20 -20 -20 -20 -20 -20 -20 -20 -20 -20 -20 -20 -20 -20 -20 -20 -20 -20 -20 -20 -20 -20
-20 -20 -20 -20 -20 -20 -20 -20 -20 -20 -20 -20 -20 -20 -20 -20 -20 -20 -20 -20 -20 -20 -20 -20 -20 -20 -20 -20 -20 -20 -20 -20 -20 -20 -20 -20 -20 -20 -20 -20 -20 -20 -20 -20
-20 -20 -20 -20 -20 -20 -20 -20 -20 -20 -20 -20 -20 -16 -20 -20 -20 -20 -20 -20 -20 -20 -20 -20 -20 -20 -20 -20 -20 -20 -20 -20 -20 -20 -20 -20 -20 -20 -20 -20 -20 -20 -20 -20
-20 -20 -20 -20 -20 -20 -20 -20 -20 -20 -20 -20 -20 -20 -20 -20 -20 -20 -20 -20 -20 -20 -20 -20 -20 -20 -20 -20 -20 -20 -20 -20 -20 -20 -20 -20 -20 -20 -20 -20 -20 -20 -20 -20
-20 -20 -20 -20 -20 -20 -20 -20 -20 -20 -20 -20 -20 -20 -20 -20 -20 -20 -20 -20 -20 -20 -20 -20 -20 -20 -20 -20 -20 -20 -20 -20 -20 -20 -20 -20 -20 -20 -20 -20 -20 -20 -20 -20
-20 -20 -20 -20 -20 -20 -20 -20 -20 -20 -20 -20 -20 -20 -14 -20 -20 -20 -20 -20 -20 -20 -20 -20 -20 -20 -20 -20 -20 -20 -20 -20 -20 -20 -20 -20 -20 -20 -20 -20 -20 -20 -20 -20
-20 -20 -20 -20 -20 -20 -20 -20 -20 -20 -20 -20 -20 -20 -20 -20 -20 -20 -20 -20 -20 -20 -20 -20 -20 -20 -20 -20 -20 -20 -20 -20 -20 -20 -20 -20 -20 -20 -20 -20 -20 -20 -20 -20
-20 -20 -20 -20 -20 -20 -20 -20 -20 -20 -20 -20 -20 -20 -20 -20 -20 -20 -20 -20 -20 -20 -20 -20 -20 -20 -20 -20 -20 -20 -20 -20 -20 -20 -20 -20 -20 -20 -20 -20 -20 -20 -20 -20
-20 -20 -20 -20 -20 -20 -20 -20 -20 -20 -20 -20 -20 -20 -20 -20 -20 -20 -20 -20 -20 -20 -20 -20 -20 -20 -20 -20 -20 -20 -20 -20 -20 -20 -20 -20 -20 -20 -20 -20 -20 -20 -20 -20
-20 -20 -20 -20 -20 -20 -20 -20 -20 -20 -20 -20 -20 -20 -20 -20 -20 -20 -20 -20 -20 -20 -20 -20 -20 -20 -20 -20 -20 -20 -20 -20 -15 9 26 3 0 -14 -20 -20 -20 -20 -20 -20
-20 -20 -20 -20 -20 -20 -20 -20 -20 -20 -20 -20 -20 -20 -20 -20 -20 -20 -20 -20 -20 -20 -20 -20 -20 -20 -20 -16 -20 -20 -20 -20 -5 7 14 5 25 5 -20 -20 -20 -20 -20 -20
-20 -20 -20 -20 -20 -20 -20 -20 -20 -20 -20 -20 -20 -20 -20 -20 -20 -20 -20 -20 -20 -20 -20 -20 -20 -20 -20 -20 -20 -20 -20 -20 -20 -20 -20 -12 -4 -20 -20 -20 -20 -20 -20 -20
-20 -20 -20 -20 -20 -20 -20 -20 -20 -20 -20 -20 -20 -20 -20 -20 -20 -20 -20 -20 -20 -20 -20 -20 -20 -20 -20 -20 -20 -20 -20 -20 -20 -20 -20 -20 -20 -20 -20 -20 -20 -20 -20 -20
-20 -20 -20 -20 -20 -20 -20 -20 -20 -20 -20 -20 -20 -20 -20 -20 -20 -20 -20 -20 -20 -20 -20 -20 -20 -20 -20 -20 -20 -20 -20 -20 -20 -20 -20 -20 -20 -20 -20 -20 -20 -20 -20 -20
-20 -20 -20 -20 -20 -20 -20 -20 -20 -20 -20 -20 -20 -20 -20 -20 -20 -20 -20 -20 -20 -20 -20 -20 -20 -20 -20 -20 -20 -20 -20 -20 -20 -20 -20 -20 -20 -20 -20 -20 -20 -20 -20 -20
-20 -20 -20 -20 -20 -20 -20 -20 -20 -20 -20 -20 -20 -20 -20 -20 -20 -20 -20 -20 -20 -20 -20 -20 -20 -20 -20 -20 -20 -20 -20 -20 -20 -20 -20 -20 -20 -20 -20 -16 3 -2 0 -1
-20 -20 -20 -20 -20 -20 -20 -20 -20 -20 -20 -20 -20 -20 -20 -20 -20 -20 -20 -20 -20 -20 -20 -20 -20 -20 -20 -20 -20 -20 -20 -20 -20 -20 -20 -20 -20 -20 -20 -20 -16 -14 -16 -3
-20 -20 -20 -20 -20 -20 -20 -20 -20 -20 -20 -20 -20 -20 -20 -20 -20 -20 -20 -20 -20 -20 -20 -20 -20 -20 -20 -20 -20 -20 -20 -20 -20 -20 -20 -20 -20 -20 -20 -20 -20 -18 -12 -2
-20 -20 -20 -20 -20 -20 -20 -20 -20 -20 -20 -20 0 -8 -20 -20 -20 -20 -20 -20 -20 -20 -20 -20 -20 -20 -20 -20 -20 -20 -20 -20 -20 -20 -20 -20 -20 -20 -20 -20 -20 -20 -20 -20
-20 -20 -20 -20 -20 -20 -20 -20 -20 -14 32 -20 11 9 -20 -19 -20 -20 -20 -20 -20 -20 -20 -20 -20 -20 -20 -20 -20 -20 -20 -20 -20 -20 -20 -20 -20 -20 -20 -20 -20 -20 -20 -20
-20 -20 -20 -20 -20 -20 -20 -20 -20 13 -20 -20 -20 -20 -20 -20 -20 -20 -20 -20 -20 -20 -20 -20 -20 -20 -20 -20 -20 -20 -20 -20 -20 -20 -20 -20 -20 -20 -20 -20 -20 -20 -20 -20
-20 -20 -20 -20 -20 -20 -20 -20 -20 -20 -20 -20 -20 -20 -20 -20 -20 -20 -20 -20 -20 -20 -20 -20 -20 -20 -20 -20 -20 -20 -20 -20 -20 -20 -20 -20 -20 -20 -20 -20 -20 -20 -8 -11
-20 -20 -20 -20 -20 -20 -20 -20 -20 -20 -20 -20 -20 -20 -20 -20 -20 -20 -20 -20 -20 -20 -20 -20 -20 -20 -20 -20 -20 -20 -20 -20 -20 -20 -20 -20 -20 -20 -20 -20 -20 -20 -20 -20
-20 -20 -20 -20 -20 -20 -20 -20 -20 -20 -20 -20 -20 -20 -20 -20 -20 -20 -20 -20 -20 -20 -20 -20 -20 -20 -20 -20 -20 -20 -20 -20 -20 -20 -20 -20 -20 -20 -20 -20 -20 -20 -20 -6
-20 -20 -20 -20 -20 -20 -20 -20 -20 -20 -20 -20 -20 -20 -20 -20 -20 -20 -20 -20 -20 -20 -20 -20 -20 -20 -20 -20 -20 -20 -20 -20 -20 -20 -20 -20 -20 -20 -20 -20 -20 -20 -20 -11
Wind_Speed
13 12 15 16 11 4 1 2 2 6 4 5 4 5 13 16 16 16 17 17 19 18 17 17 15 15 13 13 13 14 13 11 8 8 7 6 6 4 3 2 2 4 5 5
9 17 16 15 12 9 8 6 3 6 3 5 2 7 10 18 19 18 17 18 18 18 18 17 16 15 16 15 14 14 14 13 11 8 6 5 4 3 3 1 3 4 5 4
17 12 15 9 11 14 13 11 2 6 3 6 8 8 8 15 15 17 17 17 17 18 19 19 18 17 16 16 17 16 16 14 13 11 7 5 4 3 5 4 5 5 6 5
12 5 9 18 19 16 17 3 4 3 7 4 3 1 10 11 15 17 18 19 18 18 18 18 20 19 17 17 15 15 15 15 13 13 9 9 6 6 5 5 3 3 5 6
11 10 14 19 19 15 15 0 3 3 11 7 10 8 11 9 11 15 19 20 20 21 20 19 18 18 17 15 14 14 14 14 13 13 11 9 9 6 5 5 3 5 4 5
9 1 12 15 14 7 8 8 10 9 10 11 6 8 10 10 6 5 10 20 22 21 21 20 17 15 14 12 12 12 13 13 13 13 14 12 10 8 5 6 6 6 5 6
15 10 6 7 11 10 12 15 12 12 12 10 6 7 10 6 5 1 3 16 20 20 19 18 18 16 15 14 13 12 13 14 14 14 14 13 12 10 9 8 8 7 5 5
13 16 14 13 16 13 17 18 11 10 11 8 6 8 3 3 3 3 3 12 19 20 18 19 20 18 17 16 16 15 14 14 15 15 14 12 12 9 9 9 8 7 6 4
12 14 9 7 12 12 15 16 16 18 3 9 4 5 10 3 3 2 6 8 16 18 19 20 19 18 17 16 16 16 15 13 11 11 9 10 10 12 10 10 8 8 7 5
4 11 8 12 7 7 11 16 11 10 12 10 9 6 9 7 6 5 8 8 12 14 16 15 15 16 15 16 15 14 13 11 10 7 7 11 13 13 12 10 11 10 8 7
10 10 10 8 14 15 10 10 12 10 7 9 9 6 7 5 4 5 7 5 4 8 12 14 14 12 13 13 15 14 13 14 10 8 10 12 12 13 12 12 11 11 10 9
18 8 11 16 10 8 15 19 16 11 13 10 11 10 5 3 5 6 6 6 4 3 7 11 13 12 11 12 13 14 16 18 17 16 12 10 13 12 12 12 12 12 12 11
15 11 9 12 11 8 14 14 13 15 14 11 8 9 7 6 6 7 7 6 7 6 8 11 14 11 12 12 13 14 17 18 18 11 8 10 13 12 12 13 11 12 12 12
13 16 14 11 13 13 20 14 15 16 12 12 10 13 11 7 8 10 8 6 9 10 11 14 14 14 12 12 12 13 14 15 14 9 7 6 6 9 10 10 10 11 11 12
16 16 14 3 4 5 8 14 14 16 15 12 6 12 15 4 7 10 9 8 11 14 15 14 15 13 13 12 11 11 10 10 10 9 7 5 5 4 5 8 11 10 10 11
17 9 11 11 6 8 8 7 10 16 16 9 14 11 9 5 11 10 10 11 11 14 13 15 14 14 13 13 13 11 10 9 7 7 7 7 8 8 9 10 10 9 11 12
15 9 9 12 9 6 10 12 11 11 11 14 14 4 6 10 13 12 13 13 14 15 16 16 16 15 14 14 13 13 11 9 7 5 4 3 4 6 6 6 7 9 10 11
12 16 9 4 8 11 4 3 4 10 8 11 10 2 2 10 11 11 13 15 16 17 17 15 16 16 15 16 15 14 13 11 9 7 5 4 2 0 2 4 5 6 6 8
16 12 6 6 10 2 7 7 6 6 9 10 11 6 9 12 12 10 13 15 16 16 15 14 14 15 14 15 15 14 13 12 10 8 6 4 2 2 2 3 4 5 6 7
12 14 9 7 7 8 5 8 3 3 7 10 9 9 11 16 13 12 14 16 16 16 15 14 16 16 14 14 15 14 12 11 10 8 7 5 3 2 3 4 5 4 6 7
11 11 13 10 9 5 7 9 6 8 7 10 6 7 12 14 7 16 16 15 15 15 15 14 14 13 12 12 12 12 12 10 10 10 8 5 2 1 2 3 5 5 7 7
10 9 7 8 10 9 10 8 6 6 6 5 4 9 14 7 9 14 15 14 14 16 16 15 12 11 10 8 7 8 8 9 8 7 6 4 2 2 2 4 5 6 7 8
6 3 5 8 8 5 10 5 4 4 7 6 8 13 14 11 8 8 12 13 13 13 13 13 12 11 9 8 6 7 5 5 6 4 3 3 2 3 4 5 7 8 8 8
3 4 5 7 5 8 10 4 3 5 9 8 11 14 14 9 8 9 10 11 10 10 11 11 11 11 8 7 8 5 4 3 4 3 3 3 5 3 6 7 8 8 9 9
2 9 8 5 6 8 6 7 11 12 12 13 13 13 8 9 10 9 8 8 8 6 6 7 8 7 6 5 5 5 5 3 2 2 4 5 7 6 7 8 8 9 9 7
8 9 9 9 14 2 14 12 12 13 14 12 14 14 12 12 11 11 10 8 6 7 5 5 5 6 6 6 6 5 4 2 3 5 5 6 7 8 8 9 9 7 12 11
Wind_Direction
198 212 219 217 227 22 301 318 22 86 36 264 243 247 169 182 197 190 188 190 195 200 195 192 196 195 196 194 190 195 198 190 194 201 206 208 220 203 223 231 189 219 199 197
179 223 219 233 228 228 237 266 115 128 71 266 212 261 186 181 197 199 196 191 198 197 195 194 192 197 201 200 202 202 204 195 200 204 213 236 227 216 287 223 197 233 195 190
226 214 226 233 213 234 238 257 54 349 334 241 290 227 179 188 198 201 205 203 198 198 197 191 195 200 198 202 203 205 205 197 202 215 202 204 236 236 228 210 220 206 212 210
241 157 233 225 231 225 248 115 188 244 277 328 322 307 175 167 202 205 207 201 204 202 202 202 197 199 202 205 203 207 203 202 199 197 204 214 231 235 228 240 235 249 221 218
197 209 220 227 226 225 256 232 217 239 264 261 190 261 106 158 193 206 209 209 209 194 204 205 206 198 203 201 201 202 204 203 203 195 213 202 225 223 233 238 265 254 188 224
256 263 239 236 235 228 246 232 218 240 269 266 212 257 167 151 90 156 193 202 206 204 201 201 204 202 204 201 202 200 196 201 201 196 202 206 214 234 243 230 247 242 208 193
204 196 189 238 215 215 209 226 232 224 225 245 107 235 271 54 49 145 225 188 198 201 200 203 203 196 198 199 199 199 193 193 195 198 198 201 209 215 229 241 233 263 234 222
203 203 198 188 223 208 217 229 231 216 242 240 139 237 210 71 352 350 208 177 188 194 196 199 203 201 196 195 193 193 190 194 193 194 203 200 204 216 224 225 257 237 246 241
210 229 173 198 208 235 189 229 248 273 224 284 244 190 271 153 119 87 137 154 181 191 195 194 196 200 192 191 193 192 187 190 194 197 203 214 217 228 219 236 225 231 243 258
194 236 183 175 197 215 263 212 207 233 258 241 241 230 280 199 293 145 153 179 169 190 196 196 193 196 189 187 186 183 178 169 171 188 211 211 209 222 230 227 230 242 242 231
234 246 153 168 207 192 193 208 236 284 241 279 257 244 264 286 312 184 144 179 179 204 189 195 184 184 181 181 174 165 153 143 128 162 242 209 223 209 218 227 228 234 232 230
217 234 187 206 194 269 234 217 217 225 216 240 288 295 16 111 148 161 131 132 126 187 180 182 166 158 160 170 157 151 152 165 193 207 173 193 206 227 213 222 224 228 231 227
194 231 215 173 180 189 231 231 258 245 248 271 260 273 134 143 160 143 141 120 137 134 140 163 134 148 146 157 151 164 169 187 200 193 167 213 211 212 226 233 227 235 229 229
189 224 235 210 215 202 206 215 227 248 236 243 232 266 168 167 167 157 141 136 121 121 134 133 141 143 146 150 160 172 184 198 215 217 191 173 214 220 223 233 241 240 238 234
224 232 221 234 321 268 229 200 211 229 238 259 278 230 241 65 174 160 139 133 129 133 131 137 135 135 142 148 153 167 178 203 230 251 231 216 215 230 241 253 256 251 246 243
216 220 193 233 227 243 226 225 222 222 249 259 269 275 82 105 143 153 150 138 139 129 129 121 131 141 143 146 146 151 164 182 199 231 260 254 248 255 249 247 250 252 249 248
219 208 200 216 195 214 229 210 215 225 230 235 237 340 134 160 171 160 153 146 134 124 121 123 129 131 131 130 135 136 143 148 160 175 205 223 238 247 248 252 255 256 254 255
221 225 211 182 177 224 80 86 256 257 244 237 248 132 214 159 166 153 160 142 136 130 123 125 126 124 135 135 127 129 133 135 134 132 134 131 148 168 313 300 289 284 272 258
231 222 194 201 221 228 218 195 224 236 275 206 230 183 179 159 143 148 148 142 139 134 133 136 135 134 132 138 134 131 132 133 134 129 128 123 91 20 350 312 304 296 290 282
213 215 226 205 252 235 298 124 146 189 200 176 178 165 176 171 180 153 160 144 140 142 142 146 142 146 143 142 137 133 138 143 134 129 121 117 96 23 352 338 313 301 278 256
175 203 216 197 236 209 112 145 141 243 78 136 173 140 169 195 344 135 156 154 150 144 151 151 153 152 160 148 147 159 156 162 150 142 143 137 112 14 339 318 310 302 290 297
184 191 205 233 225 233 159 157 246 60 102 133 183 167 177 125 130 148 160 156 151 155 158 167 169 167 168 169 178 178 182 162 155 153 148 138 134 298 330 300 295 292 285 275
229 268 187 243 202 134 174 31 81 66 113 132 156 159 145 138 123 154 170 163 161 168 171 179 173 175 183 182 206 208 194 188 165 157 172 218 228 263 273 285 291 286 266 260
202 248 202 187 141 157 159 156 123 122 102 112 144 157 152 129 136 128 152 165 168 175 182 188 185 179 169 185 187 200 163 194 164 184 241 274 275 286 281 294 292 294 292 288
29 174 169 106 132 147 149 132 127 116 108 107 123 144 157 136 131 122 129 150 158 155 144 161 178 169 165 167 142 140 149 167 207 259 287 283 278 295 298 274 303 304 299 324
188 181 198 199 166 230 139 142 133 122 115 116 112 105 92 100 105 100 91 93 115 126 114 115 123 130 122 125 126 109 91 56 327 290 284 325 308 310 306 307 304 240 233 256